Regional Weather Roundup
Issued by NWS

Home | Current Version | Previous Version | Graphics & Text | Print | Product List | Glossary On
Versions: 1 2 3 4 5 6 7 8 9 10 11 12 13 14 15 16 17 18 19 20 21 22 23 24 25 26 27 28 29 30 31 32 33 34 35 36 37 38 39 40 41 42 43 44 45 46 47 48 49 50
000
ASUS43 KDTX 042101
RWRMI
MICHIGAN HOURLY REGIONAL WEATHER ROUNDUP
NATIONAL WEATHER SERVICE DETROIT/PONTIAC MI
500 PM EDT MON MAY 04 2015

NOTE: "FAIR" INDICATES FEW OR NO CLOUDS BELOW 12,000 FEET WITH NO
SIGNIFICANT WEATHER AND/OR OBSTRUCTION TO VISIBILITY.

MIZ047>049-052>055-059>063-066>070-074>076-081>083-042200-
SOUTHEAST LOWER MICHIGAN

CITY           SKY/WX    TMP DP  RH WIND       PRES   REMARKS
ADRIAN         PTSUNNY   74  59  59 W13G21    30.11S
ALMA           PTSUNNY   72  54  53 CALM      30.09S
ANN ARBOR      CLOUDY    74  60  61 SW14G22   30.09S
BAD AXE        PTSUNNY   68  56  64 NW7       30.09R
CARO           PTSUNNY   72  58  60 CALM      30.09R
DETROIT CITY   CLOUDY    72  59  63 SW13G22   30.08R
DETROIT        CLOUDY    73  60  63 S18       30.10R
FLINT          PTSUNNY   76  57  51 NW12      30.09R
GROSSE ILE     CLOUDY    70  61  73 SW10      30.09R
HILLSDALE      CLOUDY    74  58  58 W12       30.12S
HOWELL         PTSUNNY   75  54  48 NW14G24   30.09S

CITY           SKY/WX    TMP DP  RH WIND       PRES   REMARKS
JACKSON        PTSUNNY   75  55  49 W10G22    30.10R
LAMBERTVILLE   CLOUDY    72  59  64 SW10G17   30.13R
LANSING        PTSUNNY   74  55  51 W13       30.11R
LAPEER         FAIR      73  56  55 W8        30.09R
MASON          PTSUNNY   74  56  53 W9        30.10R
MONROE         CLOUDY    73  61  64 SW16      30.09S
MT. CLEMENS    PTSUNNY   75  57  52 NW9       30.05R
PONTIAC        PTSUNNY   75  55  49 W16G26    30.08R
PORT HOPE        N/A     66  55  67 N3        30.07R
PORT HURON     CLOUDY    75  55  50 W7G17     30.07R
TRI CITIES     MOSUNNY   74  54  49 VRB7      30.08S
MIDLAND        PTSUNNY   76  52  42 W7        30.07S
TROY           CLOUDY    77  53  42 W12G17    30.09R
SAGINAW HB     PTSUNNY   73  54  49 NW5       30.08R
$$
MIZ043>046-050>051-056>058-064>065-071>073-077>080-042200-
SOUTHWEST LOWER MICHIGAN

CITY           SKY/WX    TMP DP  RH WIND       PRES   REMARKS
BATTLE CREEK   PTSUNNY   75  56  51 W13       30.12S
BENTON HARBOR  PTSUNNY   60  54  80 VRB6      30.16R
BIG RAPIDS     MOSUNNY   74  41  31 N5G18     30.09S
COLDWATER      CLOUDY    72  57  60 W10       30.12
FREMONT        CLOUDY    73  49  43 N5        30.10R
HOLLAND        MOSUNNY   61  52  72 W7        30.15R
GRAND RAPIDS   PTSUNNY   74  55  51 W10       30.11S
IONIA          FAIR      74  56  52 SW10G17   30.09S
KALAMAZOO      PTSUNNY   74  56  53 W12       30.12S
LUDINGTON      MOSUNNY   71  33  25 N12G21    30.15R
MARSHALL       PTSUNNY   74  56  53 W8G23     30.10S
MOUNT PLEASANT PTSUNNY   75  45  34 N6        30.08R
MUSKEGON       PTSUNNY   61  45  55 W9        30.13S
SOUTH HAVEN    PTSUNNY   62  53  74 NW6       30.16R
$$
MIZ016>042-042200-
NORTHERN LOWER MICHIGAN

CITY           SKY/WX    TMP DP  RH WIND       PRES   REMARKS
ALPENA         SUNNY     69  38  32 N18G28    30.08R
BEAVER ISLAND  MOSUNNY   60  37  42 NW7       30.17R
BELLAIRE       SUNNY     64  40  41 NW6       30.15S
CADILLAC       SUNNY     68  34  28 N10G20    30.14R
CHARLEVOIX     MOSUNNY   58  39  49 NW13G18   30.19S
FRANKFORT      SUNNY     66  33  29 N9        30.17S
GAYLORD        SUNNY     63  41  44 W13G21    30.13R
GRAYLING       SUNNY     68  36  30 NW17      30.12R
HARBOR SPRINGS SUNNY     49  38  65 SW9       30.14S
HOUGHTON LAKE  SUNNY     70  38  31 W15       30.11R
MANISTEE       MOSUNNY   66  36  32 N13G21    30.17R
OSCODA         SUNNY     69  50  50 E9G18     30.07R
PELLSTON       SUNNY     65  36  34 NW20G29   30.14R
ROGERS CITY    MOSUNNY   63  39  41 NW13G23   30.11R
TRAVERSE CITY  PTSUNNY   63  40  42 N12       30.16R
$$
MIZ007>008-015-042200-
EASTERN UPPER MICHIGAN

CITY           SKY/WX    TMP DP  RH WIND       PRES   REMARKS
KINROSS        SUNNY     55  41  58 N16       30.13R
MACKINAC ISLAN SUNNY     65  31  27 NW12G22   30.12R
NEWBERRY       MOSUNNY   58  34  40 NW13G22   30.16R
S. S. MARIE    SUNNY     52  39  61 NW15G23   30.14R
MUNISING         N/A     52  37  56 NW9       30.20S
$$
MIZ004>006-011>014-085-042200-
CENTRAL UPPER MICHIGAN

CITY           SKY/WX    TMP DP  RH WIND       PRES   REMARKS
MANISTIQUE     SUNNY     62  35  36 N15G22    30.16S
ESCANABA       SUNNY     64  37  36 NE14      30.16R
MENOMINEE      SUNNY     63  37  39 E16       30.16S
SAWYER-GWINN   SUNNY     55  36  47 NE14      30.19R
$$
MIZ001>003-009>011-084-042200-
WESTERN UPPER MICHIGAN

CITY           SKY/WX    TMP DP  RH WIND       PRES   REMARKS
IRON MOUNTAIN  SUNNY     68  27  21 N7        30.14S
HOUGHTON       SUNNY     60  35  39 MISG      30.18S
COPPER HARBOR    N/A     50  39  66 N8        30.17S
IRONWOOD       MOSUNNY   59  25  27 N7        30.18S
$$

ABBREVIATIONS USED IN REMARKS
   TC - TEMPERATURE IN CELSIUS
  WCI - WIND CHILL INDEX
   HX - HEAT INDEX
  VSB - VISIBILITY




USA.gov is the U.S. government's official web portal to all federal, state and local government web resources and services.